Tracking 18840 objects as of 18-November-2017
HD Live streaming from Space Station
objects crossing your sky now

COSMOS 921

Track COSMOS 921 now!
10-day predictions
COSMOS 921 is classified as:


NORAD ID: 10095
Int'l Code: 1977-055A
Perigee: 573.5 km
Apogee: 625.7 km
Inclination: 75.8 °
Period: 96.5 minutes
Semi major axis: 6970 km
RCS: 2.5859 m2 (large)
Launch date: June 24, 1977
Source: Commonwealth of Independent States (former USSR) (CIS)
Launch site: PLESETSK MISSILE AND SPACE COMPLEX (PKMTR)
aabbcc
Your satellite tracking list
Your tracking list is empty




NASA's NSSDC Master Catalog

Two Line Element Set (TLE):
1 10095U 77055A   17321.56603599 +.00000130 +00000-0 +14775-4 0  9998
2 10095 075.8357 033.7738 0037457 100.7139 259.8274 14.91761048186744
Source of the keplerian elements: AFSPC